QPF
0.00 0.00 0.00 0.00 0.00 0.00 0.00 0.00 0.00 0.00 0.00 0.00 0.00 0.00 0.00 0.00 0.00 0.00 0.00 0.00 0.00 0.00 0.00 0.00 0.00 0.00 0.00 0.00 0.00 0.00 0.00 0.00 0.00 0.00 0.00 0.01 0.00 0.00 0.00 0.00 0.00 0.00 0.00 0.00 0.00 0.00 0.00 0.00 0.00
0.00 0.00 0.00 0.00 0.00 0.00 0.00 0.00 0.00 0.00 0.00 0.00 0.00 0.00 0.00 0.00 0.00 0.00 0.00 0.00 0.00 0.00 0.00 0.00 0.00 0.00 0.00 0.00 0.00 0.00 0.00 0.00 0.00 0.00 0.00 0.00 0.00 0.01 0.01 0.01 0.01 0.01 0.01 0.01 0.01 0.01 0.01 0.00 0.00
0.00 0.00 0.00 0.00 0.00 0.00 0.00 0.00 0.00 0.00 0.00 0.00 0.00 0.00 0.00 0.00 0.00 0.00 0.00 0.00 0.00 0.00 0.00 0.00 0.00 0.00 0.00 0.00 0.00 0.00 0.00 0.00 0.00 0.00 0.00 0.00 0.00 0.00 0.00 0.00 0.00 0.00 0.01 0.01 0.02 0.03 0.02 0.00 0.00
0.00 0.00 0.00 0.00 0.00 0.00 0.00 0.00 0.00 0.00 0.00 0.00 0.00 0.00 0.00 0.00 0.00 0.00 0.00 0.00 0.00 0.01 0.04 0.01 0.00 0.00 0.00 0.00 0.00 0.00 0.00 0.00 0.00 0.00 0.00 0.00 0.00 0.00 0.00 0.00 0.00 0.00 0.00 0.00 0.00 0.00 0.00 0.00 0.00
0.00 0.00 0.00 0.00 0.00 0.00 0.00 0.00 0.00 0.00 0.00 0.00 0.00 0.00 0.00 0.00 0.00 0.00 0.00 0.00 0.00 0.03 0.07 0.07 0.01 0.00 0.00 0.00 0.00 0.00 0.00 0.00 0.00 0.00 0.00 0.00 0.00 0.00 0.00 0.00 0.00 0.00 0.00 0.00 0.00 0.00 0.00 0.00 0.00
0.00 0.00 0.00 0.00 0.00 0.00 0.00 0.00 0.00 0.00 0.00 0.00 0.00 0.00 0.00 0.00 0.00 0.00 0.00 0.00 0.00 0.02 0.03 0.07 0.00 0.00 0.00 0.00 0.00 0.00 0.00 0.00 0.00 0.00 0.00 0.00 0.00 0.00 0.00 0.00 0.00 0.00 0.00 0.00 0.00 0.00 0.00 0.00 0.00
0.00 0.00 0.00 0.00 0.00 0.00 0.00 0.00 0.00 0.00 0.00 0.00 0.00 0.00 0.00 0.00 0.00 0.00 0.00 0.00 0.00 0.00 0.00 0.00 0.00 0.01 0.01 0.01 0.00 0.00 0.00 0.00 0.00 0.00 0.00 0.00 0.00 0.00 0.00 0.00 0.00 0.00 0.00 0.00 0.00 0.00 0.00 0.00 0.00
0.00 0.00 0.00 0.00 0.00 0.00 0.00 0.00 0.00 0.00 0.00 0.00 0.00 0.00 0.00 0.00 0.00 0.00 0.00 0.00 0.00 0.00 0.00 0.00 0.02 0.01 0.01 0.00 0.00 0.00 0.00 0.00 0.00 0.00 0.00 0.00 0.00 0.00 0.00 0.00 0.00 0.00 0.00 0.00 0.00 0.00 0.00 0.00 0.00
0.00 0.00 0.00 0.00 0.00 0.00 0.00 0.00 0.00 0.00 0.00 0.00 0.00 0.00 0.00 0.00 0.00 0.00 0.00 0.00 0.00 0.00 0.01 0.03 0.02 0.01 0.00 0.00 0.00 0.00 0.00 0.00 0.00 0.00 0.00 0.00 0.00 0.00 0.00 0.00 0.00 0.00 0.00 0.00 0.00 0.00 0.00 0.00 0.00
0.00 0.00 0.00 0.00 0.00 0.00 0.00 0.00 0.00 0.00 0.00 0.00 0.00 0.00 0.00 0.00 0.00 0.00 0.00 0.00 0.00 0.00 0.00 0.01 0.00 0.00 0.00 0.00 0.00 0.00 0.00 0.00 0.00 0.00 0.00 0.00 0.00 0.00 0.00 0.00 0.00 0.00 0.00 0.00 0.00 0.00 0.00 0.00 0.00
0.00 0.00 0.00 0.00 0.00 0.00 0.00 0.00 0.00 0.00 0.00 0.00 0.00 0.00 0.00 0.00 0.00 0.00 0.00 0.00 0.00 0.00 0.00 0.00 0.00 0.00 0.00 0.00 0.00 0.00 0.00 0.00 0.00 0.00 0.00 0.00 0.00 0.00 0.00 0.00 0.00 0.00 0.00 0.00 0.00 0.00 0.00 0.00 0.00
0.00 0.00 0.00 0.00 0.00 0.00 0.00 0.00 0.00 0.00 0.00 0.00 0.00 0.00 0.00 0.00 0.00 0.00 0.00 0.00 0.00 0.00 0.00 0.00 0.00 0.00 0.00 0.00 0.00 0.00 0.00 0.00 0.00 0.00 0.00 0.00 0.00 0.00 0.00 0.00 0.00 0.00 0.00 0.00 0.00 0.00 0.00 0.00 0.00
0.00 0.00 0.00 0.00 0.00 0.00 0.00 0.00 0.00 0.00 0.00 0.00 0.00 0.00 0.00 0.00 0.00 0.00 0.00 0.00 0.00 0.00 0.00 0.00 0.00 0.00 0.00 0.00 0.00 0.00 0.00 0.00 0.00 0.00 0.00 0.00 0.00 0.00 0.00 0.00 0.00 0.00 0.00 0.00 0.00 0.00 0.00 0.00 0.00
0.00 0.00 0.00 0.00 0.00 0.00 0.00 0.00 0.00 0.00 0.00 0.00 0.00 0.00 0.00 0.00 0.00 0.00 0.00 0.00 0.00 0.00 0.00 0.00 0.00 0.00 0.00 0.00 0.00 0.00 0.00 0.00 0.00 0.00 0.00 0.00 0.00 0.00 0.00 0.00 0.00 0.00 0.00 0.00 0.00 0.00 0.00 0.00 0.00
0.00 0.00 0.00 0.00 0.00 0.00 0.00 0.00 0.00 0.00 0.00 0.00 0.00 0.00 0.00 0.00 0.00 0.00 0.00 0.00 0.00 0.00 0.00 0.00 0.00 0.00 0.00 0.00 0.00 0.00 0.00 0.00 0.00 0.00 0.00 0.00 0.00 0.00 0.00 0.00 0.00 0.00 0.00 0.00 0.00 0.00 0.00 0.00 0.00
0.00 0.00 0.00 0.00 0.00 0.00 0.00 0.00 0.00 0.00 0.00 0.00 0.00 0.00 0.00 0.00 0.00 0.00 0.00 0.00 0.00 0.00 0.00 0.00 0.00 0.00 0.00 0.00 0.00 0.00 0.00 0.00 0.00 0.00 0.00 0.00 0.00 0.00 0.00 0.00 0.00 0.00 0.00 0.00 0.00 0.00 0.00 0.00 0.00
0.00 0.00 0.00 0.00 0.00 0.00 0.00 0.00 0.00 0.00 0.00 0.00 0.00 0.00 0.00 0.00 0.00 0.00 0.00 0.00 0.00 0.00 0.00 0.00 0.00 0.00 0.00 0.00 0.00 0.00 0.00 0.00 0.00 0.00 0.00 0.00 0.00 0.00 0.00 0.00 0.00 0.00 0.00 0.00 0.00 0.00 0.00 0.00 0.00
0.00 0.00 0.00 0.00 0.00 0.00 0.00 0.00 0.00 0.00 0.00 0.00 0.00 0.00 0.00 0.00 0.00 0.00 0.00 0.00 0.00 0.00 0.00 0.00 0.00 0.00 0.00 0.00 0.00 0.00 0.00 0.00 0.00 0.00 0.00 0.00 0.00 0.00 0.00 0.00 0.00 0.00 0.00 0.00 0.00 0.00 0.00 0.00 0.00
0.00 0.00 0.00 0.00 0.00 0.00 0.00 0.00 0.00 0.00 0.00 0.00 0.00 0.00 0.00 0.00 0.00 0.00 0.00 0.00 0.00 0.00 0.00 0.00 0.00 0.00 0.00 0.00 0.00 0.00 0.00 0.00 0.00 0.00 0.00 0.00 0.00 0.00 0.00 0.00 0.00 0.00 0.00 0.00 0.00 0.00 0.00 0.00 0.00
0.00 0.00 0.00 0.00 0.00 0.00 0.00 0.00 0.00 0.00 0.00 0.00 0.00 0.00 0.00 0.00 0.00 0.00 0.00 0.00 0.00 0.00 0.00 0.00 0.00 0.00 0.00 0.00 0.00 0.00 0.00 0.00 0.00 0.00 0.00 0.00 0.00 0.00 0.00 0.00 0.00 0.00 0.00 0.00 0.00 0.00 0.00 0.00 0.00
0.00 0.00 0.00 0.00 0.00 0.00 0.00 0.00 0.00 0.00 0.00 0.00 0.00 0.00 0.00 0.00 0.00 0.00 0.00 0.00 0.00 0.00 0.00 0.00 0.00 0.00 0.00 0.00 0.00 0.00 0.00 0.00 0.00 0.00 0.00 0.00 0.00 0.00 0.00 0.00 0.00 0.00 0.00 0.00 0.00 0.00 0.00 0.00 0.00
0.00 0.00 0.00 0.00 0.00 0.00 0.00 0.00 0.00 0.00 0.00 0.00 0.00 0.00 0.00 0.00 0.00 0.00 0.00 0.00 0.00 0.00 0.00 0.00 0.00 0.00 0.00 0.00 0.00 0.00 0.00 0.00 0.00 0.00 0.00 0.00 0.00 0.00 0.00 0.00 0.00 0.00 0.00 0.00 0.00 0.00 0.00 0.00 0.00
0.00 0.00 0.00 0.00 0.00 0.00 0.00 0.00 0.00 0.00 0.00 0.00 0.00 0.00 0.00 0.00 0.00 0.00 0.00 0.00 0.00 0.00 0.00 0.00 0.00 0.00 0.00 0.00 0.00 0.00 0.00 0.00 0.00 0.00 0.00 0.00 0.00 0.00 0.00 0.00 0.00 0.00 0.00 0.00 0.00 0.00 0.00 0.00 0.00
0.00 0.00 0.00 0.00 0.00 0.00 0.00 0.00 0.00 0.00 0.00 0.00 0.00 0.00 0.00 0.00 0.00 0.00 0.00 0.00 0.00 0.00 0.00 0.00 0.00 0.00 0.00 0.00 0.00 0.00 0.00 0.00 0.00 0.00 0.00 0.00 0.00 0.00 0.00 0.00 0.00 0.00 0.00 0.00 0.00 0.00 0.00 0.00 0.00
0.00 0.00 0.00 0.00 0.00 0.00 0.00 0.00 0.00 0.00 0.00 0.00 0.00 0.00 0.00 0.00 0.00 0.00 0.00 0.00 0.00 0.00 0.00 0.00 0.00 0.00 0.00 0.00 0.00 0.00 0.00 0.00 0.00 0.00 0.00 0.00 0.00 0.00 0.00 0.00 0.00 0.00 0.00 0.00 0.00 0.00 0.00 0.00 0.00
0.00 0.00 0.00 0.00 0.00 0.00 0.00 0.00 0.00 0.00 0.00 0.00 0.00 0.00 0.00 0.00 0.00 0.00 0.00 0.00 0.00 0.00 0.00 0.00 0.00 0.00 0.00 0.00 0.00 0.00 0.00 0.00 0.00 0.00 0.00 0.00 0.00 0.00 0.00 0.00 0.00 0.00 0.00 0.00 0.00 0.00 0.00 0.00 0.00
0.00 0.00 0.00 0.00 0.00 0.00 0.00 0.00 0.00 0.00 0.00 0.00 0.00 0.00 0.00 0.00 0.00 0.00 0.00 0.00 0.00 0.00 0.00 0.00 0.00 0.00 0.00 0.00 0.00 0.00 0.00 0.00 0.00 0.00 0.00 0.00 0.00 0.00 0.00 0.00 0.00 0.00 0.00 0.00 0.00 0.00 0.00 0.00 0.00
0.00 0.00 0.00 0.00 0.00 0.00 0.00 0.00 0.00 0.00 0.00 0.00 0.00 0.00 0.00 0.00 0.00 0.00 0.00 0.00 0.00 0.00 0.00 0.00 0.00 0.00 0.00 0.00 0.00 0.00 0.00 0.00 0.00 0.00 0.00 0.00 0.00 0.00 0.00 0.00 0.00 0.00 0.00 0.00 0.00 0.00 0.00 0.00 0.00
0.00 0.00 0.00 0.00 0.00 0.00 0.00 0.00 0.00 0.00 0.00 0.00 0.00 0.00 0.00 0.00 0.00 0.00 0.00 0.00 0.00 0.00 0.00 0.00 0.00 0.00 0.00 0.00 0.00 0.00 0.00 0.00 0.00 0.00 0.00 0.00 0.00 0.00 0.00 0.00 0.00 0.00 0.00 0.00 0.00 0.00 0.00 0.00 0.00
0.00 0.00 0.00 0.00 0.00 0.00 0.00 0.00 0.00 0.00 0.00 0.00 0.00 0.00 0.01 0.00 0.00 0.00 0.00 0.00 0.00 0.00 0.00 0.00 0.00 0.00 0.00 0.00 0.00 0.00 0.00 0.00 0.00 0.00 0.00 0.00 0.00 0.00 0.00 0.00 0.00 0.00 0.00 0.00 0.00 0.00 0.00 0.00 0.00
MSLP
1011.48 1011.51 1011.45 1011.26 1011.61 1011.02 1010.10 1009.95 1010.05 1009.87 1010.21 1010.71 1010.93 1010.99 1011.45 1012.40 1013.04 1014.70 1015.64 1015.80 1015.80 1015.95 1016.02 1016.10 1016.29 1016.32 1016.33 1016.17 1016.14 1016.01 1015.92 1015.80 1015.72 1015.79 1016.05 1016.01 1016.24 1016.36 1016.40 1016.44 1016.50 1016.41 1016.40 1016.37 1016.33 1016.46 1016.45 1016.35 1016.38
1011.32 1011.35 1011.25 1011.24 1011.05 1010.48 1009.81 1009.89 1009.77 1010.09 1010.71 1011.13 1011.47 1011.90 1012.34 1013.46 1014.19 1015.08 1015.84 1016.22 1016.15 1016.23 1016.37 1016.58 1016.49 1016.47 1016.45 1016.54 1016.36 1016.37 1016.66 1016.25 1016.33 1016.12 1016.40 1016.48 1016.49 1016.67 1016.73 1016.67 1016.55 1016.42 1016.34 1016.40 1016.26 1016.23 1016.31 1016.36 1016.42
1011.26 1011.14 1011.03 1011.25 1011.16 1010.26 1009.67 1009.68 1009.85 1010.47 1010.98 1011.19 1011.99 1012.85 1013.35 1014.07 1014.65 1015.47 1016.15 1016.45 1016.41 1016.57 1016.62 1016.70 1016.58 1016.64 1016.73 1016.96 1016.85 1016.52 1017.11 1016.59 1016.78 1016.69 1016.91 1016.92 1017.01 1017.18 1017.24 1017.29 1017.15 1016.89 1016.65 1016.49 1016.36 1016.36 1016.34 1016.35 1016.45
1011.14 1011.14 1012.05 1011.27 1010.77 1010.37 1009.94 1009.71 1010.01 1010.57 1011.09 1011.50 1012.20 1013.30 1014.33 1014.79 1014.85 1015.49 1016.36 1016.62 1016.72 1016.98 1016.90 1017.07 1016.74 1016.70 1016.77 1017.29 1017.17 1017.11 1017.50 1016.99 1017.07 1017.14 1017.25 1017.18 1017.31 1017.46 1017.53 1017.59 1017.58 1017.34 1017.16 1017.05 1016.85 1016.71 1016.53 1016.51 1016.48
1011.45 1011.31 1011.18 1011.10 1010.63 1010.09 1009.97 1009.93 1010.15 1010.50 1010.89 1011.63 1012.32 1013.64 1014.70 1015.59 1015.66 1015.95 1016.44 1016.88 1016.94 1017.16 1017.13 1017.40 1017.42 1017.40 1017.18 1017.69 1017.68 1017.74 1017.77 1017.58 1017.79 1017.75 1017.91 1018.02 1018.00 1017.97 1017.83 1017.70 1017.63 1017.60 1017.52 1017.49 1017.29 1017.21 1016.95 1016.72 1016.52
1011.24 1011.51 1011.09 1010.64 1010.35 1009.91 1009.74 1009.86 1010.13 1010.64 1011.18 1011.90 1012.36 1013.47 1014.90 1015.93 1016.16 1016.54 1016.84 1017.18 1017.42 1017.62 1017.72 1017.83 1017.93 1017.96 1017.85 1018.16 1018.06 1018.05 1017.95 1017.82 1018.24 1018.30 1018.61 1018.56 1018.51 1018.56 1018.42 1018.34 1018.06 1017.90 1017.86 1017.82 1017.59 1017.39 1017.31 1017.05 1016.68
1010.87 1011.16 1010.86 1010.65 1010.25 1009.80 1009.59 1009.85 1010.19 1010.76 1011.55 1012.03 1012.49 1013.53 1015.30 1015.99 1016.64 1017.03 1017.38 1017.65 1017.89 1018.13 1018.36 1018.62 1018.68 1018.52 1018.19 1018.28 1018.27 1018.32 1018.22 1018.47 1018.65 1018.94 1019.06 1018.73 1018.86 1018.99 1019.07 1018.78 1018.71 1018.56 1018.40 1018.06 1017.76 1017.71 1017.42 1017.23 1016.98
1011.14 1011.14 1011.01 1010.74 1010.13 1009.64 1009.70 1009.85 1010.45 1010.82 1011.56 1012.33 1012.84 1013.29 1014.78 1015.69 1016.69 1017.26 1017.77 1018.26 1018.42 1018.48 1018.85 1018.95 1019.07 1018.84 1018.78 1018.65 1018.79 1018.82 1018.85 1019.26 1019.44 1019.32 1019.23 1019.24 1019.38 1019.49 1019.33 1019.26 1019.25 1018.78 1018.95 1018.62 1018.34 1017.81 1017.66 1017.38 1017.15
1011.32 1011.09 1010.86 1010.51 1010.28 1009.74 1009.68 1009.96 1010.81 1011.22 1011.57 1012.53 1013.21 1013.62 1014.12 1015.51 1016.57 1017.19 1017.82 1018.34 1018.71 1019.09 1019.37 1019.16 1019.19 1019.21 1019.26 1019.50 1019.52 1019.50 1019.79 1019.96 1019.83 1019.66 1019.83 1019.78 1019.85 1019.75 1019.52 1019.45 1019.49 1019.51 1019.18 1018.76 1018.66 1018.33 1017.75 1017.54 1017.05
1011.14 1011.03 1010.62 1010.45 1010.26 1010.06 1009.88 1010.18 1010.46 1011.04 1011.72 1012.57 1013.49 1014.24 1014.78 1015.46 1016.14 1016.53 1017.21 1018.27 1018.98 1019.38 1019.53 1019.41 1019.40 1019.44 1019.59 1019.59 1019.90 1020.22 1020.27 1020.28 1020.16 1020.37 1020.54 1020.40 1020.45 1020.36 1020.29 1020.24 1020.13 1019.48 1019.33 1019.20 1018.73 1018.52 1018.18 1017.47 1017.12
1011.40 1010.92 1010.62 1010.59 1010.54 1010.34 1010.15 1010.15 1010.24 1010.45 1011.27 1011.54 1012.52 1014.09 1015.03 1015.72 1016.43 1016.90 1017.63 1018.33 1018.86 1019.44 1019.70 1019.85 1019.89 1019.97 1019.97 1020.25 1020.34 1020.37 1020.46 1020.54 1020.67 1020.85 1020.85 1020.88 1020.74 1020.64 1020.37 1020.27 1020.04 1019.92 1019.77 1019.00 1018.84 1018.44 1018.00 1018.12 1017.66
1011.66 1011.11 1011.07 1010.73 1010.80 1010.84 1010.46 1010.20 1010.32 1010.62 1010.75 1011.42 1012.10 1013.45 1014.69 1015.37 1016.12 1016.92 1017.93 1018.80 1019.26 1019.62 1020.02 1020.29 1020.40 1020.46 1020.70 1020.64 1020.68 1020.75 1020.73 1020.98 1021.18 1021.45 1021.28 1021.15 1021.02 1021.05 1020.85 1020.62 1020.39 1020.19 1020.16 1019.73 1019.28 1018.85 1018.67 1018.27 1018.04
1011.61 1011.30 1011.27 1010.97 1010.58 1010.67 1010.81 1010.54 1010.58 1010.72 1011.02 1011.63 1012.56 1013.79 1014.62 1015.53 1016.51 1017.40 1018.23 1019.02 1019.51 1019.77 1020.07 1020.25 1020.43 1020.62 1020.70 1020.67 1020.80 1020.95 1021.27 1021.49 1021.73 1021.81 1022.11 1021.91 1021.71 1021.57 1021.23 1021.07 1020.85 1020.70 1020.31 1020.00 1019.59 1019.21 1018.88 1018.34 1017.92
1011.92 1011.58 1011.29 1010.97 1010.69 1010.72 1010.79 1010.78 1011.03 1011.21 1011.80 1012.32 1013.06 1013.98 1014.97 1015.82 1016.75 1017.82 1018.54 1019.18 1019.61 1020.05 1020.44 1020.74 1020.79 1020.79 1020.81 1020.94 1021.26 1021.57 1021.93 1022.23 1022.38 1022.55 1022.64 1022.48 1022.20 1022.02 1021.74 1021.51 1021.26 1021.05 1021.04 1020.47 1019.93 1019.39 1019.00 1018.55 1018.11
1012.20 1011.89 1011.12 1010.83 1010.82 1010.65 1010.63 1010.89 1011.26 1011.69 1012.36 1013.12 1013.98 1014.69 1015.38 1016.11 1017.03 1017.61 1018.35 1018.89 1019.43 1019.95 1020.52 1020.88 1021.15 1021.39 1021.50 1021.71 1021.93 1022.27 1022.51 1022.65 1022.81 1022.96 1023.07 1022.76 1022.55 1022.40 1022.05 1021.81 1021.57 1021.42 1021.05 1021.00 1020.29 1019.49 1018.77 1018.37 1017.93
1012.31 1012.06 1011.40 1010.94 1010.80 1010.80 1010.92 1010.83 1011.26 1011.82 1012.40 1013.49 1014.50 1015.16 1015.95 1016.74 1017.38 1018.14 1018.85 1019.29 1019.74 1020.22 1020.71 1021.18 1021.49 1021.92 1022.17 1022.43 1022.54 1022.79 1022.99 1022.94 1023.07 1023.10 1023.10 1023.19 1023.00 1022.84 1022.30 1022.11 1022.13 1022.17 1021.59 1020.86 1020.34 1020.02 1019.16 1018.42 1017.86
1012.56 1012.14 1011.94 1011.33 1011.26 1011.08 1010.95 1010.94 1011.24 1012.10 1012.72 1013.69 1014.47 1015.47 1016.43 1017.44 1018.30 1019.05 1019.66 1020.01 1020.31 1020.80 1021.22 1021.64 1022.02 1022.29 1022.56 1022.87 1023.07 1023.29 1023.48 1023.34 1023.42 1023.56 1023.51 1023.53 1023.35 1023.25 1022.78 1022.69 1022.61 1022.27 1021.64 1021.14 1021.04 1020.17 1019.68 1018.77 1018.08
1012.57 1012.48 1012.23 1011.80 1011.40 1011.22 1011.20 1010.99 1011.19 1012.07 1012.74 1013.49 1014.47 1015.49 1016.41 1017.44 1018.55 1019.48 1020.17 1020.64 1020.90 1021.14 1021.56 1021.82 1022.22 1022.62 1022.90 1023.05 1023.28 1023.46 1023.56 1023.65 1023.78 1023.82 1023.92 1023.85 1023.76 1023.63 1023.30 1023.13 1023.00 1022.36 1021.88 1021.63 1021.27 1020.76 1020.06 1019.30 1018.66
1013.32 1013.02 1012.75 1012.37 1011.71 1011.61 1010.96 1010.90 1011.03 1011.82 1012.93 1013.71 1014.48 1015.67 1016.73 1017.77 1018.92 1019.61 1020.23 1020.72 1021.12 1021.40 1021.51 1021.82 1022.24 1022.74 1022.87 1022.99 1023.22 1023.49 1023.73 1024.05 1024.19 1024.46 1024.72 1024.50 1024.44 1024.17 1023.88 1023.63 1023.23 1022.69 1022.19 1022.13 1021.75 1021.39 1020.42 1019.50 1019.11
1013.42 1013.30 1012.78 1012.30 1011.90 1011.84 1011.18 1010.95 1010.89 1011.59 1012.38 1013.23 1014.14 1015.47 1016.55 1017.77 1018.71 1019.59 1020.32 1020.89 1021.40 1021.84 1022.17 1022.45 1022.76 1023.04 1023.14 1023.25 1023.58 1023.83 1024.08 1024.40 1024.62 1024.79 1025.02 1025.04 1025.01 1024.68 1024.29 1024.26 1024.09 1023.64 1022.94 1022.54 1022.19 1021.95 1021.18 1020.17 1019.94
1013.12 1013.03 1012.93 1012.61 1012.14 1011.96 1011.69 1011.02 1011.14 1011.86 1012.83 1013.51 1014.32 1015.27 1016.28 1016.92 1018.08 1019.45 1020.45 1021.07 1021.69 1022.16 1022.48 1022.82 1023.09 1023.29 1023.47 1023.69 1023.72 1023.91 1024.21 1024.36 1024.58 1025.05 1025.23 1025.46 1025.25 1025.08 1024.85 1024.66 1024.76 1024.27 1023.73 1023.30 1022.83 1022.66 1022.22 1021.60 1020.65
1012.94 1012.15 1012.36 1012.68 1012.65 1012.03 1012.13 1011.04 1011.30 1011.79 1012.58 1013.75 1014.45 1015.19 1016.29 1017.56 1018.67 1019.46 1020.42 1020.99 1021.61 1022.32 1022.91 1023.24 1023.46 1023.65 1023.94 1024.16 1024.06 1023.97 1024.01 1024.42 1025.34 1025.49 1025.55 1025.57 1025.79 1025.74 1025.34 1025.02 1025.07 1024.71 1024.41 1023.97 1023.61 1023.31 1022.83 1022.45 1021.69
1012.32 1012.07 1012.50 1012.65 1012.93 1012.94 1012.31 1012.34 1011.27 1011.98 1012.25 1013.66 1015.00 1015.80 1016.58 1017.55 1018.54 1019.27 1020.01 1020.72 1021.58 1022.33 1022.81 1023.39 1023.75 1023.98 1024.29 1024.77 1024.90 1024.57 1024.56 1025.38 1025.86 1025.71 1025.66 1025.70 1026.01 1026.04 1025.82 1025.63 1025.32 1025.13 1024.77 1024.55 1024.29 1023.49 1023.15 1023.11 1022.88
1012.33 1012.42 1012.96 1013.28 1013.19 1013.09 1012.15 1012.35 1011.51 1011.96 1012.39 1013.47 1014.81 1015.70 1016.41 1017.34 1018.40 1019.23 1019.93 1020.58 1021.48 1022.37 1022.99 1023.32 1023.66 1024.01 1024.73 1024.98 1025.15 1025.02 1025.20 1025.83 1025.81 1025.80 1025.92 1025.86 1026.52 1026.20 1026.16 1026.08 1025.76 1025.56 1025.30 1024.98 1024.60 1024.23 1023.82 1023.65 1023.67
1012.48 1012.91 1013.19 1013.37 1013.25 1012.55 1012.37 1012.65 1011.39 1011.81 1012.64 1013.53 1014.26 1015.27 1016.14 1017.09 1017.83 1018.58 1019.63 1020.42 1021.51 1022.30 1023.08 1023.67 1024.04 1024.62 1024.86 1025.23 1025.53 1025.56 1025.78 1025.93 1026.19 1026.15 1026.13 1026.44 1026.54 1026.46 1026.43 1026.38 1026.41 1025.97 1025.87 1025.47 1025.34 1024.76 1024.44 1024.26 1023.89
1012.28 1012.68 1012.92 1012.74 1012.82 1012.58 1012.80 1011.71 1011.53 1012.12 1013.05 1013.73 1014.41 1015.21 1016.21 1016.95 1017.64 1018.54 1019.65 1020.59 1021.44 1022.24 1023.01 1023.77 1024.45 1025.06 1025.24 1025.59 1025.81 1026.06 1026.38 1026.61 1026.63 1026.36 1026.81 1026.87 1026.78 1026.96 1026.88 1026.85 1026.87 1026.42 1026.18 1026.03 1025.70 1025.27 1024.95 1024.62 1024.21
1012.58 1012.49 1012.61 1013.06 1013.61 1013.17 1012.11 1011.69 1011.72 1012.26 1013.02 1013.94 1014.63 1015.24 1016.05 1016.64 1017.46 1018.46 1019.57 1020.28 1021.09 1022.11 1022.98 1023.58 1024.51 1024.73 1025.42 1025.75 1026.11 1026.46 1026.84 1026.79 1026.77 1026.96 1027.09 1027.02 1027.10 1027.11 1027.20 1027.25 1027.01 1026.86 1026.75 1026.57 1026.07 1025.73 1025.41 1024.92 1024.68
1012.30 1012.47 1013.02 1013.43 1013.31 1012.86 1012.03 1011.88 1011.82 1012.12 1012.48 1013.44 1014.36 1014.73 1015.54 1016.45 1017.32 1018.27 1019.16 1020.16 1021.11 1021.89 1022.97 1023.82 1024.27 1024.76 1025.46 1025.83 1026.21 1026.51 1027.10 1027.04 1027.23 1027.22 1027.18 1027.26 1027.34 1027.43 1027.55 1027.61 1027.49 1027.38 1027.33 1027.01 1026.52 1026.24 1025.99 1025.40 1025.28
1012.81 1012.84 1013.26 1013.56 1013.63 1013.27 1012.93 1011.31 1011.58 1011.93 1012.31 1012.93 1013.30 1014.07 1015.08 1015.98 1017.15 1018.12 1019.14 1020.19 1021.06 1022.20 1022.88 1023.63 1024.38 1025.08 1025.37 1025.77 1026.20 1026.83 1027.30 1027.48 1027.45 1027.50 1027.63 1027.69 1027.81 1028.04 1028.23 1028.24 1028.17 1028.17 1027.88 1027.65 1027.31 1027.08 1026.78 1026.26 1026.11
1012.96 1013.05 1013.24 1013.64 1013.75 1013.85 1013.71 1010.69 1011.69 1011.92 1012.09 1012.43 1012.69 1013.42 1014.59 1015.71 1016.98 1018.00 1019.06 1020.04 1021.12 1021.98 1022.77 1023.43 1024.11 1024.72 1025.49 1025.92 1026.49 1027.05 1027.61 1027.75 1027.77 1028.04 1028.23 1028.42 1028.61 1028.77 1028.89 1028.85 1028.74 1028.65 1028.49 1028.57 1028.09 1027.68 1027.56 1027.20 1026.77
Thickness
5753 5753 5753 5750 5730 5724 5722 5729 5732 5737 5740 5742 5744 5745 5743 5734 5734 5725 5720 5721 5721 5719 5717 5716 5715 5715 5715 5715 5715 5716 5715 5716 5717 5716 5713 5712 5708 5706 5705 5703 5701 5701 5700 5699 5699 5697 5696 5696 5696
5749 5749 5746 5734 5720 5712 5724 5726 5731 5733 5734 5737 5736 5734 5730 5718 5722 5717 5715 5713 5713 5712 5710 5709 5710 5710 5710 5709 5710 5709 5705 5709 5709 5710 5706 5704 5703 5699 5698 5697 5697 5697 5697 5695 5695 5694 5692 5692 5691
5745 5745 5736 5719 5701 5711 5716 5724 5729 5729 5730 5732 5725 5722 5720 5711 5715 5710 5708 5706 5706 5705 5704 5704 5705 5705 5704 5701 5701 5704 5697 5702 5700 5701 5698 5697 5695 5692 5691 5688 5688 5689 5690 5690 5690 5689 5687 5687 5685
5738 5734 5718 5712 5703 5712 5713 5721 5727 5723 5724 5726 5721 5711 5708 5710 5710 5707 5701 5699 5699 5697 5698 5697 5699 5698 5696 5691 5694 5694 5690 5695 5694 5692 5689 5689 5687 5685 5683 5681 5680 5680 5680 5680 5681 5681 5682 5681 5680
5727 5719 5705 5697 5699 5708 5712 5717 5721 5717 5722 5717 5717 5701 5698 5697 5701 5700 5697 5693 5693 5692 5692 5689 5688 5687 5688 5683 5683 5682 5683 5685 5682 5682 5680 5677 5676 5676 5676 5675 5675 5673 5672 5671 5672 5672 5673 5675 5676
5716 5708 5697 5694 5697 5708 5713 5716 5716 5715 5714 5709 5710 5704 5695 5692 5692 5691 5690 5687 5685 5684 5682 5679 5679 5678 5678 5675 5676 5676 5676 5678 5673 5671 5667 5667 5667 5665 5665 5665 5666 5666 5666 5665 5666 5667 5666 5667 5671
5713 5703 5695 5691 5694 5701 5711 5716 5711 5709 5705 5705 5709 5699 5687 5686 5684 5683 5681 5679 5677 5675 5673 5668 5668 5669 5671 5671 5670 5669 5670 5667 5664 5661 5660 5662 5660 5657 5655 5657 5656 5657 5658 5659 5661 5661 5662 5663 5664
5709 5702 5687 5688 5694 5700 5710 5711 5709 5708 5702 5703 5702 5699 5686 5686 5679 5676 5672 5668 5666 5665 5662 5660 5658 5660 5660 5660 5659 5660 5660 5656 5652 5653 5652 5652 5649 5647 5648 5648 5646 5649 5648 5651 5652 5656 5657 5658 5659
5705 5697 5686 5690 5689 5702 5711 5706 5701 5703 5700 5695 5692 5694 5694 5683 5674 5669 5664 5660 5658 5655 5652 5653 5652 5651 5652 5649 5649 5648 5645 5643 5643 5643 5642 5641 5640 5639 5640 5640 5639 5638 5639 5644 5644 5647 5651 5653 5655
5701 5691 5693 5698 5699 5699 5704 5701 5701 5698 5693 5689 5684 5684 5683 5679 5673 5670 5665 5655 5650 5646 5645 5645 5645 5644 5643 5642 5640 5636 5635 5634 5634 5632 5629 5629 5629 5629 5629 5628 5628 5633 5632 5632 5636 5638 5642 5647 5648
5691 5694 5694 5695 5696 5697 5699 5699 5701 5701 5693 5699 5692 5678 5673 5669 5664 5661 5656 5650 5646 5639 5636 5634 5634 5633 5632 5629 5628 5627 5626 5625 5623 5622 5621 5619 5619 5619 5620 5619 5621 5621 5622 5628 5627 5630 5633 5634 5638
5686 5691 5690 5694 5690 5688 5691 5697 5696 5697 5699 5696 5694 5681 5672 5667 5662 5656 5647 5640 5636 5633 5628 5625 5623 5622 5620 5619 5618 5617 5616 5614 5611 5608 5609 5609 5608 5607 5608 5608 5610 5611 5611 5614 5617 5619 5620 5623 5626
5682 5684 5685 5688 5691 5686 5685 5689 5692 5692 5692 5690 5683 5674 5668 5662 5654 5647 5640 5632 5628 5626 5622 5620 5618 5615 5613 5612 5610 5607 5603 5600 5598 5595 5592 5593 5593 5592 5594 5596 5598 5598 5601 5603 5605 5608 5610 5614 5617
5677 5677 5679 5681 5684 5683 5679 5680 5680 5685 5679 5677 5673 5667 5660 5654 5647 5636 5630 5624 5620 5615 5611 5608 5608 5607 5606 5603 5599 5594 5590 5586 5583 5581 5580 5580 5580 5580 5581 5582 5584 5586 5585 5590 5594 5599 5599 5602 5606
5669 5667 5675 5677 5676 5678 5678 5676 5671 5674 5670 5664 5658 5654 5649 5644 5638 5633 5626 5620 5615 5609 5603 5600 5596 5593 5591 5588 5584 5580 5577 5574 5572 5569 5567 5568 5567 5567 5568 5568 5569 5571 5573 5572 5578 5585 5591 5592 5596
5657 5656 5660 5669 5670 5668 5669 5664 5669 5664 5664 5654 5646 5643 5638 5632 5629 5621 5614 5609 5603 5598 5593 5587 5583 5578 5575 5572 5570 5566 5563 5562 5560 5558 5556 5553 5552 5551 5554 5554 5552 5551 5555 5560 5563 5564 5572 5580 5585
5641 5645 5643 5653 5658 5656 5659 5655 5661 5652 5651 5642 5639 5632 5624 5617 5610 5603 5597 5593 5589 5584 5580 5575 5571 5567 5563 5559 5555 5552 5549 5548 5546 5542 5539 5538 5538 5537 5537 5536 5535 5536 5539 5543 5542 5549 5553 5561 5567
5634 5634 5635 5638 5650 5647 5645 5648 5653 5643 5640 5637 5631 5622 5615 5606 5596 5588 5583 5578 5576 5573 5569 5565 5559 5553 5547 5544 5543 5541 5538 5535 5531 5527 5525 5525 5523 5522 5521 5519 5518 5521 5522 5523 5525 5526 5531 5539 5545
5621 5620 5620 5629 5638 5632 5638 5637 5645 5639 5629 5625 5620 5611 5603 5594 5581 5575 5571 5568 5565 5563 5560 5555 5548 5540 5536 5534 5534 5530 5525 5519 5514 5510 5507 5507 5506 5506 5505 5504 5504 5505 5506 5504 5504 5505 5511 5519 5523
5611 5608 5614 5621 5624 5622 5629 5629 5638 5631 5624 5619 5611 5600 5593 5579 5573 5566 5560 5556 5552 5547 5541 5538 5532 5527 5526 5524 5520 5517 5511 5505 5501 5498 5495 5493 5491 5492 5491 5489 5487 5487 5488 5487 5486 5484 5488 5494 5496
5606 5601 5600 5603 5611 5610 5609 5620 5621 5615 5608 5604 5599 5595 5586 5581 5569 5556 5548 5542 5537 5532 5527 5522 5518 5515 5512 5508 5506 5503 5498 5495 5492 5486 5483 5479 5479 5478 5477 5475 5470 5470 5470 5469 5469 5466 5466 5465 5471
5587 5602 5598 5591 5590 5594 5594 5598 5606 5609 5603 5589 5587 5583 5575 5563 5553 5545 5537 5531 5526 5518 5512 5507 5504 5500 5496 5492 5492 5492 5491 5487 5476 5474 5470 5468 5464 5461 5461 5460 5455 5454 5452 5451 5450 5449 5449 5447 5449
5591 5594 5587 5586 5578 5572 5579 5575 5596 5586 5598 5584 5570 5562 5555 5550 5542 5534 5528 5521 5513 5504 5498 5493 5490 5486 5482 5476 5475 5477 5475 5467 5462 5462 5460 5456 5450 5447 5445 5444 5442 5440 5439 5437 5434 5437 5436 5431 5429
5581 5578 5566 5560 5562 5560 5576 5571 5581 5580 5585 5575 5560 5552 5545 5536 5529 5524 5517 5509 5500 5491 5486 5483 5479 5475 5469 5466 5463 5463 5461 5455 5454 5451 5448 5444 5435 5436 5433 5430 5429 5427 5425 5423 5422 5419 5416 5414 5411
5566 5560 5550 5549 5549 5560 5558 5555 5584 5576 5568 5563 5559 5547 5536 5529 5525 5520 5509 5500 5490 5483 5476 5471 5468 5463 5459 5455 5451 5450 5447 5445 5441 5439 5436 5430 5427 5425 5422 5418 5414 5413 5410 5408 5403 5403 5402 5401 5401
5556 5554 5544 5537 5544 5557 5548 5561 5573 5561 5553 5548 5545 5539 5527 5522 5518 5511 5501 5491 5482 5474 5467 5461 5455 5449 5447 5443 5440 5437 5433 5430 5427 5427 5421 5418 5417 5412 5409 5404 5400 5399 5396 5392 5391 5391 5391 5391 5391
5544 5543 5548 5537 5528 5532 5553 5559 5562 5550 5548 5535 5534 5526 5519 5516 5511 5502 5490 5483 5478 5468 5459 5454 5447 5444 5437 5434 5429 5425 5420 5419 5418 5415 5411 5409 5405 5401 5396 5392 5389 5386 5383 5380 5380 5380 5380 5381 5380
5544 5544 5531 5526 5523 5524 5543 5544 5548 5551 5551 5541 5520 5514 5519 5508 5502 5495 5487 5478 5469 5463 5453 5445 5441 5435 5429 5425 5420 5416 5411 5410 5407 5404 5402 5398 5394 5389 5384 5380 5377 5374 5370 5368 5369 5369 5369 5371 5368
5530 5527 5522 5522 5520 5520 5520 5544 5540 5541 5541 5530 5531 5518 5498 5507 5486 5486 5478 5469 5461 5448 5445 5437 5430 5424 5421 5417 5412 5406 5402 5398 5396 5394 5390 5386 5382 5377 5371 5368 5365 5361 5360 5358 5357 5356 5356 5357 5356
5521 5522 5522 5512 5515 5505 5500 5533 5527 5527 5527 5525 5526 5519 5504 5491 5481 5469 5466 5460 5447 5444 5437 5430 5424 5418 5411 5407 5402 5396 5390 5387 5386 5381 5378 5373 5369 5365 5361 5357 5355 5352 5350 5347 5346 5346 5344 5343 5345